SM2NLD Weather Reports


time (UTC)temp
C
wind
direction
speed
KPH
gust
KPH
rain 1hr
cm
rain 24hr
cm
rain mn
cm
humidity
%
barometer
mb
20260508063603 2 318 3.2 6.4 0.00 0.00 0.00 10 1012.4
20260508063249 2 245 1.6 6.4 0.00 0.00 0.00 10 1012.5
20260508062749 2 252 4.8 6.4 0.00 0.00 0.00 10 1012.4
20260508062706 2 248 4.8 6.4 0.00 0.00 0.00 10 1012.4
20260508062249 2 251 3.2 6.4 0.00 0.00 0.00 10 1012.4
20260508061803 1 224 1.6 4.8 0.00 0.00 0.00 10 1012.3
20260508061749 1 227 1.6 4.8 0.00 0.00 0.00 10 1012.3
20260508061635 1 229 1.6 4.8 0.00 0.00 0.00 10 1012.4
20260508061249 1 308 1.6 3.2 0.00 0.00 0.00 10 1012.4
20260508060903 1 351 0.0 3.2 0.00 0.00 0.00 10 1012.2
20260508060749 1 355 0.0 3.2 0.00 0.00 0.00 10 1012.3
20260508060249 1 223 0.0 4.8 0.00 0.00 0.00 10 1012.2
20260508060007 1 217 0.0 4.8 0.00 0.00 0.00 10 1012.2
20260508055749 1 226 1.6 4.8 0.00 0.00 0.00 10 1012.1
20260508055635 1 229 1.6 4.8 0.00 0.00 0.00 10 1012.2
20260508055403 1 244 0.0 4.8 0.00 0.00 0.00 10 1012.2
20260508055249 1 261 1.6 3.2 0.00 0.00 0.00 10 1012.2
20260508054749 1 266 0.0 6.4 0.00 0.00 0.00 10 1012.1
20260508054503 1 259 0.0 6.4 0.00 0.00 0.00 10 1012.1
20260508054248 0 253 3.2 6.4 0.00 0.00 0.00 10 1012.0
20260508053749 0 235 1.6 3.2 0.00 0.00 0.00 10 1012.0
20260508053634 0 230 1.6 3.2 0.00 0.00 0.00 10 1012.0
20260508053607 0 230 1.6 3.2 0.00 0.00 0.00 10 1012.0
20260508053248 0 32 0.0 3.2 0.00 0.00 0.00 11 1011.9
20260508052748 0 78 0.0 3.2 0.00 0.00 0.00 13 1011.8
20260508052703 0 78 0.0 3.2 0.00 0.00 0.00 13 1011.8
20260508052248 0 135 0.0 3.2 0.00 0.00 0.00 18 1012.0
20260508051803 0 135 0.0 3.2 0.00 0.00 0.00 18 1011.9
20260508051748 0 135 0.0 1.6 0.00 0.00 0.00 18 1011.8
20260508051508 0 0 0.0 0.0 0.00 0.00 0.00 19 1011.9
20260508051008 0 0 0.0 0.0 0.00 0.00 0.00 20 1011.9
20260508050903 0 0 0.0 0.0 0.00 0.00 0.00 20 1011.9
20260508050508 -1 0 0.0 0.0 0.00 0.00 0.00 22 1012.0
20260508050008 -1 0 0.0 0.0 0.00 0.00 0.00 22 1011.8
20260508050003 -1 0 0.0 0.0 0.00 0.00 0.00 22 1011.8
20260508045634 -1 0 0.0 0.0 0.00 0.00 0.00 22 1011.8
20260508045508 -1 0 0.0 0.0 0.00 0.00 0.00 22 1011.8
20260508045403 -1 0 0.0 0.0 0.00 0.00 0.00 22 1011.8
20260508045008 -1 0 0.0 0.0 0.00 0.00 0.00 23 1011.8
20260508044508 -1 0 0.0 0.0 0.00 0.00 0.00 24 1011.8
20260508044503 -1 0 0.0 0.0 0.00 0.00 0.00 24 1011.8
20260508044008 -2 0 0.0 0.0 0.00 0.00 0.00 24 1011.8
20260508043634 -2 0 0.0 0.0 0.00 0.00 0.00 25 1011.8
20260508043603 -2 0 0.0 0.0 0.00 0.00 0.00 25 1011.8
20260508043508 -2 0 0.0 0.0 0.00 0.00 0.00 24 1011.8
20260508043008 -2 0 0.0 0.0 0.00 0.00 0.00 25 1011.6
20260508042703 -2 0 0.0 0.0 0.00 0.00 0.00 25 1011.6
20260508042508 -2 0 0.0 0.0 0.00 0.00 0.00 25 1011.7
20260508042008 -2 0 0.0 0.0 0.00 0.00 0.00 26 1011.5
20260508041803 -2 0 0.0 0.0 0.00 0.00 0.00 26 1011.6
20260508041634 -2 0 0.0 0.0 0.00 0.00 0.00 26 1011.7
20260508041508 -3 0 0.0 0.0 0.00 0.00 0.00 26 1011.5
20260508041009 -3 0 0.0 0.0 0.00 0.00 0.00 27 1011.5
20260508040903 -3 0 0.0 0.0 0.00 0.00 0.00 26 1011.6
20260508040508 -3 0 0.0 0.0 0.00 0.00 0.00 25 1011.4
20260508040008 -3 0 0.0 0.0 0.00 0.00 0.00 25 1011.4
20260508040003 -3 0 0.0 0.0 0.00 0.00 0.00 25 1011.4
20260508035634 -3 0 0.0 0.0 0.00 0.00 0.00 25 1011.5
20260508035508 -3 0 0.0 0.0 0.00 0.00 0.00 25 1011.4
20260508035403 -3 0 0.0 0.0 0.00 0.00 0.00 25 1011.4
20260508035008 -3 0 0.0 0.0 0.00 0.00 0.00 25 1011.4
20260508034508 -4 0 0.0 0.0 0.00 0.00 0.00 25 1011.5
20260508034503 -4 0 0.0 0.0 0.00 0.00 0.00 25 1011.5
20260508034008 -4 0 0.0 0.0 0.00 0.00 0.00 24 1011.4
20260508033634 -4 0 0.0 0.0 0.00 0.00 0.00 24 1011.3
20260508033603 -4 0 0.0 0.0 0.00 0.00 0.00 24 1011.3
20260508033508 -4 0 0.0 0.0 0.00 0.00 0.00 24 1011.4
20260508033008 -4 0 0.0 0.0 0.00 0.00 0.00 23 1011.4
20260508032703 -4 0 0.0 0.0 0.00 0.00 0.00 23 1011.3
20260508032508 -4 0 0.0 0.0 0.00 0.00 0.00 22 1011.3
20260508032008 -5 0 0.0 0.0 0.00 0.00 0.00 22 1011.3
20260508031803 -5 0 0.0 0.0 0.00 0.00 0.00 22 1011.4
20260508031634 -5 0 0.0 0.0 0.00 0.00 0.00 22 1011.1
20260508031508 -5 0 0.0 0.0 0.00 0.00 0.00 22 1011.4
20260508031008 -5 0 0.0 0.0 0.00 0.00 0.00 22 1011.2
20260508030903 -4 0 0.0 0.0 0.00 0.00 0.00 22 1011.2
20260508030508 -4 0 0.0 0.0 0.00 0.00 0.00 22 1011.1
20260508030008 -4 0 0.0 0.0 0.00 0.00 0.00 22 1011.2
20260508030003 -4 0 0.0 0.0 0.00 0.00 0.00 22 1011.2
20260508025634 -5 135 0.0 1.6 0.00 0.00 0.00 22 1011.0
20260508025508 -5 135 0.0 1.6 0.00 0.00 0.00 22 1011.1
20260508025403 -5 135 0.0 1.6 0.00 0.00 0.00 22 1011.1
20260508025008 -5 135 0.0 1.6 0.00 0.00 0.00 21 1011.0
20260508024508 -5 135 0.0 3.2 0.00 0.00 0.00 20 1011.0
20260508024503 -5 135 0.0 3.2 0.00 0.00 0.00 20 1011.0
20260508024008 -5 135 0.0 3.2 0.00 0.00 0.00 19 1011.0
20260508023636 -5 0 0.0 0.0 0.00 0.00 0.00 19 1011.0
20260508023603 -5 0 0.0 0.0 0.00 0.00 0.00 19 1011.0
20260508023509 -5 0 0.0 0.0 0.00 0.00 0.00 19 1011.0
20260508023008 -5 0 0.0 0.0 0.00 0.00 0.00 19 1011.0
20260508022703 -5 0 0.0 0.0 0.00 0.00 0.00 19 1011.0
20260508022508 -5 0 0.0 0.0 0.00 0.00 0.00 19 1010.9
20260508022008 -5 0 0.0 0.0 0.00 0.00 0.00 19 1010.9
20260508021803 -5 0 0.0 0.0 0.00 0.00 0.00 19 1010.8
20260508021634 -5 0 0.0 0.0 0.00 0.00 0.00 18 1010.8
20260508021508 -5 0 0.0 0.0 0.00 0.00 0.00 18 1010.9
20260508021008 -5 0 0.0 0.0 0.00 0.00 0.00 17 1010.9
20260508020903 -5 0 0.0 0.0 0.00 0.00 0.00 17 1010.7
20260508020508 -5 0 0.0 0.0 0.00 0.00 0.00 17 1010.8
20260508020008 -5 0 0.0 0.0 0.00 0.00 0.00 17 1010.8
20260508020003 -5 0 0.0 0.0 0.00 0.00 0.00 17 1010.8
20260508015634 -5 0 0.0 0.0 0.00 0.00 0.00 16 1010.7
20260508015508 -5 0 0.0 0.0 0.00 0.00 0.00 16 1010.8
20260508015403 -5 0 0.0 0.0 0.00 0.00 0.00 16 1010.7
20260508015008 -4 180 0.0 3.2 0.00 0.00 0.00 17 1010.7
20260508014508 -4 180 0.0 3.2 0.00 0.00 0.00 16 1010.5
20260508014503 -4 180 0.0 3.2 0.00 0.00 0.00 16 1010.5
20260508014008 -5 180 0.0 3.2 0.00 0.00 0.00 16 1010.5
20260508013634 -5 180 1.6 3.2 0.00 0.00 0.00 15 1010.5
20260508013603 -5 180 1.6 3.2 0.00 0.00 0.00 15 1010.5
20260508013508 -5 180 0.0 3.2 0.00 0.00 0.00 15 1010.4
20260508013008 -5 180 0.0 3.2 0.00 0.00 0.00 14 1010.4
20260508012703 -5 180 1.6 3.2 0.00 0.00 0.00 13 1010.4
20260508012508 -5 90 0.0 3.2 0.00 0.00 0.00 13 1010.4
20260508012008 -4 90 0.0 3.2 0.00 0.00 0.00 14 1010.5
20260508011803 -4 90 0.0 3.2 0.00 0.00 0.00 14 1010.4
20260508011634 -4 98 0.0 3.2 0.00 0.00 0.00 14 1010.3
20260508011508 -4 103 0.0 3.2 0.00 0.00 0.00 14 1010.4
20260508011008 -4 128 0.0 3.2 0.00 0.00 0.00 13 1010.3
20260508010903 -4 129 0.0 3.2 0.00 0.00 0.00 13 1010.3
20260508010508 -3 135 0.0 3.2 0.00 0.00 0.00 14 1010.3
20260508010008 -3 141 0.0 3.2 0.00 0.00 0.00 14 1010.3
20260508010003 -3 141 0.0 3.2 0.00 0.00 0.00 14 1010.3
20260508005634 -3 161 1.6 3.2 0.00 0.00 0.00 13 1010.2
20260508005509 -3 166 1.6 3.2 0.00 0.00 0.00 13 1010.2
20260508005403 -3 171 1.6 3.2 0.00 0.00 0.00 13 1010.1
20260508005009 -3 175 0.0 3.2 0.00 0.00 0.00 12 1010.2
20260508004509 -4 159 3.2 3.2 0.00 0.00 0.00 10 1010.1
20260508004503 -4 159 3.2 3.2 0.00 0.00 0.00 10 1010.1
20260508004009 -4 135 0.0 3.2 0.00 0.00 0.00 10 1010.1
20260508003635 -3 135 0.0 1.6 0.00 0.00 0.00 10 1010.0
20260508003603 -3 135 0.0 1.6 0.00 0.00 0.00 10 1010.0
20260508003509 -3 135 0.0 1.6 0.00 0.00 0.00 10 1009.9
20260508003009 -3 135 0.0 3.2 0.00 0.00 0.00 10 1010.0
20260508002745 -3 135 0.0 3.2 0.00 0.00 0.00 10 1009.9
20260508002703 -3 135 0.0 3.2 0.00 0.00 0.00 10 1009.9
20260508002245 -3 135 1.6 3.2 0.00 0.00 0.00 10 1009.9
20260508001803 -3 135 0.0 3.2 0.00 0.00 0.00 10 1009.9
20260508001745 -3 135 0.0 3.2 0.00 0.00 0.00 10 1009.8
20260508001635 -3 135 0.0 3.2 0.00 0.00 0.00 10 1009.7
20260508001245 -3 135 0.0 3.2 0.00 0.00 0.00 10 1009.7
20260508000903 -3 135 1.6 3.2 0.00 0.00 0.00 10 1009.9
20260508000745 -3 135 1.6 3.2 0.00 0.00 0.00 10 1009.8
20260508000245 -3 135 1.6 3.2 0.00 0.00 0.00 10 1009.7
20260508000003 -3 135 1.6 3.2 0.00 0.00 0.00 10 1009.8
20260507235745 -3 135 0.0 1.6 0.00 0.00 0.00 10 1009.7
20260507235635 -3 135 0.0 1.6 0.00 0.00 0.00 10 1009.7
20260507235403 -3 135 0.0 3.2 0.00 0.00 0.00 10 1009.7
20260507235245 -3 135 0.0 3.2 0.00 0.00 0.00 10 1009.8
20260507234745 -3 135 0.0 3.2 0.00 0.00 0.00 10 1009.5
20260507234503 -3 135 0.0 3.2 0.00 0.00 0.00 10 1009.5
20260507234245 -3 135 0.0 3.2 0.00 0.00 0.00 10 1009.5
20260507233745 -3 135 1.6 3.2 0.00 0.00 0.00 10 1009.4
20260507233635 -3 135 1.6 3.2 0.00 0.00 0.00 10 1009.5
20260507233603 -3 135 1.6 3.2 0.00 0.00 0.00 10 1009.5
20260507233245 -3 0 0.0 0.0 0.00 0.00 0.00 10 1009.4
20260507232745 -3 0 0.0 0.0 0.00 0.00 0.00 10 1009.3
20260507232703 -3 0 0.0 0.0 0.00 0.00 0.00 10 1009.3
20260507232245 -3 0 0.0 0.0 0.00 0.00 0.00 10 1009.3
20260507231803 -3 135 0.0 1.6 0.00 0.00 0.00 10 1009.3
20260507231746 -3 135 0.0 3.2 0.00 0.00 0.00 10 1009.2
20260507231634 -3 135 0.0 3.2 0.00 0.00 0.00 10 1009.3
20260507231245 -3 135 0.0 3.2 0.00 0.00 0.00 10 1009.2
20260507230903 -2 135 0.0 3.2 0.00 0.00 0.00 10 1009.2
20260507230745 -2 135 1.6 3.2 0.00 0.00 0.00 10 1009.1
20260507230245 -2 135 1.6 3.2 0.00 0.00 0.00 10 1009.3
20260507230003 -2 135 1.6 3.2 0.00 0.00 0.00 10 1009.1
20260507225745 -2 135 0.0 3.2 0.00 0.00 0.00 10 1009.2
20260507225635 -2 135 1.6 3.2 0.00 0.00 0.00 10 1009.2
20260507225403 -2 135 1.6 3.2 0.00 0.00 0.00 10 1009.2
20260507225245 -2 135 0.0 3.2 0.00 0.00 0.00 10 1009.1
20260507224745 -2 135 0.0 3.2 0.00 0.00 0.00 10 1009.1
20260507224504 -2 135 0.0 3.2 0.00 0.00 0.00 10 1009.2
20260507224245 -2 135 0.0 3.2 0.00 0.00 0.00 10 1009.1
20260507223745 -2 135 0.0 3.2 0.00 0.00 0.00 10 1009.0
20260507223635 -2 135 0.0 3.2 0.00 0.00 0.00 10 1009.0
20260507223603 -2 135 0.0 3.2 0.00 0.00 0.00 10 1009.0
20260507223245 -2 135 1.6 3.2 0.00 0.00 0.00 10 1009.0
20260507222745 -2 135 0.0 3.2 0.00 0.00 0.00 10 1009.0
20260507222703 -2 135 0.0 3.2 0.00 0.00 0.00 10 1009.0
20260507222245 -2 135 0.0 3.2 0.00 0.00 0.00 10 1008.9
20260507221803 -2 135 1.6 3.2 0.00 0.00 0.00 10 1008.9
20260507221745 -2 135 3.2 3.2 0.00 0.00 0.00 10 1009.0
20260507221635 -2 135 1.6 3.2 0.00 0.00 0.00 10 1008.9
20260507221245 -2 135 0.0 3.2 0.00 0.00 0.00 10 1008.9
20260507220903 -2 135 0.0 3.2 0.00 0.00 0.00 10 1008.9
20260507220745 -2 135 0.0 3.2 0.00 0.00 0.00 10 1009.0
20260507220245 -2 135 0.0 3.2 0.00 0.00 0.00 10 1008.8
20260507220003 -2 138 0.0 3.2 0.00 0.00 0.00 10 1008.9
20260507215745 -2 152 1.6 3.2 0.00 0.00 0.00 10 1008.9
20260507215635 -2 154 1.6 3.2 0.00 0.00 0.00 10 1008.9
20260507215403 -2 160 1.6 3.2 0.00 0.00 0.00 10 1008.9
20260507215245 -2 172 1.6 3.2 0.00 0.00 0.00 10 1008.8
20260507214745 -2 174 1.6 3.2 0.00 0.00 0.00 10 1008.9
20260507214503 -2 163 0.0 3.2 0.00 0.00 0.00 10 1008.8
20260507214245 -2 149 0.0 3.2 0.00 0.00 0.00 10 1008.7
20260507213746 -2 135 0.0 3.2 0.00 0.00 0.00 10 1008.8
20260507213634 -2 135 1.6 3.2 0.00 0.00 0.00 10 1008.7
20260507213603 -2 135 1.6 3.2 0.00 0.00 0.00 10 1008.7
20260507213246 -2 135 1.6 3.2 0.00 0.00 0.00 10 1008.8
20260507212746 -2 157 0.0 3.2 0.00 0.00 0.00 10 1008.6
20260507212703 -2 157 0.0 3.2 0.00 0.00 0.00 10 1008.6
20260507212246 -2 176 0.0 3.2 0.00 0.00 0.00 10 1008.6
20260507211803 -2 180 0.0 3.2 0.00 0.00 0.00 10 1008.5
20260507211746 -2 171 0.0 3.2 0.00 0.00 0.00 10 1008.6
20260507211254 -2 150 0.0 3.2 0.00 0.00 0.00 10 1008.6
20260507210903 -1 142 3.2 3.2 0.00 0.00 0.00 10 1008.4
20260507210754 -1 135 0.0 3.2 0.00 0.00 0.00 10 1008.4
20260507210254 -1 135 0.0 3.2 0.00 0.00 0.00 10 1008.3
20260507210003 -1 135 0.0 3.2 0.00 0.00 0.00 10 1008.4
20260507205754 -1 135 0.0 3.2 0.00 0.00 0.00 10 1008.3
20260507205634 -1 135 0.0 3.2 0.00 0.00 0.00 10 1008.3
20260507205403 -1 135 0.0 3.2 0.00 0.00 0.00 10 1008.2
20260507205254 -1 135 1.6 3.2 0.00 0.00 0.00 10 1008.3
20260507204754 -1 135 1.6 3.2 0.00 0.00 0.00 10 1008.2
20260507204503 -1 135 0.0 3.2 0.00 0.00 0.00 10 1008.1
20260507204254 -1 135 0.0 3.2 0.00 0.00 0.00 10 1008.1
20260507203754 -1 135 1.6 3.2 0.00 0.00 0.00 10 1008.3
20260507203634 -1 135 0.0 1.6 0.00 0.00 0.00 10 1008.0
20260507203603 -1 135 0.0 1.6 0.00 0.00 0.00 10 1008.0
20260507203254 -1 135 0.0 3.2 0.00 0.00 0.00 10 1008.1
20260507202754 -1 135 0.0 3.2 0.00 0.00 0.00 10 1008.1
20260507202703 -1 135 0.0 3.2 0.00 0.00 0.00 10 1008.1
20260507202254 0 136 1.6 3.2 0.00 0.00 0.00 10 1008.1
20260507201803 0 141 0.0 3.2 0.00 0.00 0.00 10 1008.1
20260507201754 0 142 1.6 3.2 0.00 0.00 0.00 10 1008.0
20260507201634 0 143 1.6 3.2 0.00 0.00 0.00 10 1007.9
20260507201254 0 157 0.0 3.2 0.00 0.00 0.00 10 1008.1
20260507200903 0 157 0.0 1.6 0.00 0.00 0.00 10 1007.9
20260507200754 0 157 0.0 1.6 0.00 0.00 0.00 10 1007.9
20260507200255 0 135 0.0 3.2 0.00 0.00 0.00 10 1007.8
20260507200003 0 135 0.0 3.2 0.00 0.00 0.00 10 1007.8
20260507195754 0 135 0.0 3.2 0.00 0.00 0.00 10 1007.7
20260507195634 0 135 0.0 3.2 0.00 0.00 0.00 10 1007.7
20260507195403 1 135 0.0 3.2 0.00 0.00 0.00 10 1007.7
20260507195254 1 135 1.6 3.2 0.00 0.00 0.00 10 1007.5
20260507194754 1 135 1.6 3.2 0.00 0.00 0.00 10 1007.5
20260507194503 1 135 0.0 3.2 0.00 0.00 0.00 10 1007.5
20260507194254 1 135 0.0 3.2 0.00 0.00 0.00 10 1007.5
20260507193748 2 135 0.0 3.2 0.00 0.00 0.00 10 1007.4
20260507193636 2 135 0.0 3.2 0.00 0.00 0.00 10 1007.4
20260507193603 2 135 0.0 3.2 0.00 0.00 0.00 10 1007.4
20260507193248 2 135 0.0 3.2 0.00 0.00 0.00 10 1007.3
20260507192748 2 138 0.0 3.2 0.00 0.00 0.00 10 1007.1
20260507192703 2 138 0.0 3.2 0.00 0.00 0.00 10 1007.1
20260507192248 3 141 1.6 3.2 0.00 0.00 0.00 10 1007.2
20260507191803 3 0 0.0 0.0 0.00 0.00 0.00 10 1007.1
20260507191748 3 225 0.0 3.2 0.00 0.00 0.00 10 1007.2
20260507191636 3 225 0.0 3.2 0.00 0.00 0.00 10 1007.2
20260507191248 4 225 0.0 3.2 0.00 0.00 0.00 10 1007.0
20260507190903 4 225 0.0 4.8 0.00 0.00 0.00 10 1006.9
20260507190748 5 230 1.6 4.8 0.00 0.00 0.00 10 1006.9
20260507190248 5 242 1.6 4.8 0.00 0.00 0.00 10 1007.0
20260507190004 5 242 1.6 4.8 0.00 0.00 0.00 10 1006.9
20260507185748 5 235 1.6 3.2 0.00 0.00 0.00 10 1007.0
20260507185636 5 236 1.6 3.2 0.00 0.00 0.00 10 1006.9
20260507185403 5 234 1.6 3.2 0.00 0.00 0.00 10 1006.9
20260507185248 6 241 1.6 3.2 0.00 0.00 0.00 10 1006.9
20260507184748 6 265 0.0 4.8 0.00 0.00 0.00 10 1006.7
20260507184503 6 263 0.0 6.4 0.00 0.00 0.00 10 1006.7
20260507184248 6 266 0.0 6.4 0.00 0.00 0.00 10 1006.8
20260507183748 6 297 1.6 6.4 0.00 0.00 0.00 10 1006.8
20260507183636 6 306 3.2 6.4 0.00 0.00 0.00 10 1006.7
20260507183603 6 306 3.2 6.4 0.00 0.00 0.00 10 1006.7
20260507183248 6 310 1.6 8.0 0.00 0.00 0.00 10 1006.6
20260507182749 6 282 3.2 8.0 0.00 0.00 0.00 10 1006.7
20260507182703 6 280 3.2 8.0 0.00 0.00 0.00 10 1006.7
20260507182248 6 273 3.2 12.9 0.00 0.00 0.00 10 1006.6
20260507181803 7 277 3.2 12.9 0.00 0.00 0.00 10 1006.5
20260507181748 7 269 4.8 12.9 0.00 0.00 0.00 10 1006.5
20260507181636 7 262 3.2 12.9 0.00 0.00 0.00 10 1006.6
20260507181248 7 261 6.4 12.9 0.00 0.00 0.00 10 1006.6
20260507180903 7 263 4.8 12.9 0.00 0.00 0.00 10 1006.6
20260507180748 7 267 3.2 12.9 0.00 0.00 0.00 10 1006.6
20260507180248 7 270 8.0 12.9 0.00 0.00 0.00 10 1006.4
20260507180003 7 274 8.0 12.9 0.00 0.00 0.00 10 1006.4
20260507175748 7 281 6.4 12.9 0.00 0.00 0.00 10 1006.4
20260507175636 7 286 6.4 12.9 0.00 0.00 0.00 10 1006.4
20260507175403 7 298 4.8 12.9 0.00 0.00 0.00 10 1006.4
20260507175248 7 313 6.4 14.5 0.00 0.00 0.00 10 1006.3
20260507174748 7 309 3.2 16.1 0.00 0.00 0.00 10 1006.3
20260507174504 7 307 6.4 16.1 0.00 0.00 0.00 10 1006.2
20260507174248 7 306 4.8 16.1 0.00 0.00 0.00 10 1006.1
20260507173748 7 309 6.4 16.1 0.00 0.00 0.00 10 1006.3
20260507173636 7 317 4.8 16.1 0.00 0.00 0.00 10 1006.0
20260507173603 7 317 4.8 16.1 0.00 0.00 0.00 10 1006.0
20260507173248 7 307 6.4 16.1 0.00 0.00 0.00 10 1006.2
20260507172748 7 298 4.8 16.1 0.00 0.00 0.00 10 1006.2
20260507172704 7 297 4.8 16.1 0.00 0.00 0.00 10 1006.2
20260507172248 7 279 4.8 16.1 0.00 0.00 0.00 10 1006.1
20260507171803 8 279 4.8 16.1 0.00 0.00 0.00 10 1005.9
20260507171748 8 287 8.0 16.1 0.00 0.00 0.00 10 1005.9
20260507171636 8 287 11.3 16.1 0.00 0.00 0.00 10 1006.0
20260507171248 8 279 6.4 12.9 0.00 0.00 0.00 10 1005.9
20260507170903 8 285 4.8 14.5 0.00 0.00 0.00 10 1005.8
20260507170748 8 292 6.4 16.1 0.00 0.00 0.00 10 1005.9
20260507170248 8 331 6.4 17.7 0.00 0.00 0.00 10 1005.8
20260507170003 8 322 6.4 17.7 0.00 0.00 0.00 10 1005.7
20260507165748 8 324 6.4 17.7 0.00 0.00 0.00 10 1005.7
20260507165636 8 321 9.7 17.7 0.00 0.00 0.00 10 1005.7
20260507165403 8 313 9.7 17.7 0.00 0.00 0.00 10 1005.8
20260507165249 8 310 8.0 17.7 0.00 0.00 0.00 10 1005.7
20260507164749 8 310 11.3 17.7 0.00 0.00 0.00 10 1005.6
20260507164503 8 305 6.4 17.7 0.00 0.00 0.00 10 1005.7
20260507164249 8 299 8.0 17.7 0.00 0.00 0.00 10 1005.6
20260507163749 8 312 12.9 17.7 0.00 0.00 0.00 10 1005.5
20260507163635 8 318 11.3 17.7 0.00 0.00 0.00 10 1005.6
20260507163603 8 318 11.3 17.7 0.00 0.00 0.00 10 1005.6
20260507163249 8 336 6.4 17.7 0.00 0.00 0.00 10 1005.5
20260507162749 7 347 6.4 14.5 0.00 0.00 0.00 10 1005.4
20260507162703 7 345 6.4 14.5 0.00 0.00 0.00 10 1005.4
20260507162249 6 334 3.2 14.5 0.00 0.00 0.00 10 1005.4
20260507161803 6 305 6.4 11.3 0.00 0.00 0.00 10 1005.4
20260507161749 6 295 3.2 11.3 0.00 0.00 0.00 10 1005.4
20260507161635 6 292 6.4 11.3 0.00 0.00 0.00 10 1005.3
20260507161249 6 273 4.8 11.3 0.00 0.00 0.00 10 1005.3
20260507160903 6 274 6.4 9.7 0.00 0.00 0.00 10 1005.4
20260507160749 6 285 6.4 12.9 0.00 0.00 0.00 10 1005.3
20260507160249 6 328 6.4 12.9 0.00 0.00 0.00 10 1005.2
20260507160003 6 347 6.4 12.9 0.00 0.00 0.00 10 1005.2
20260507155748 6 341 6.4 14.5 0.00 0.00 0.00 10 1005.1
20260507155635 6 342 4.8 14.5 0.00 0.00 0.00 10 1005.2
20260507155403 6 338 3.2 17.7 0.00 0.00 0.00 10 1005.2
20260507155249 6 333 6.4 17.7 0.00 0.00 0.00 10 1005.1
20260507154749 7 315 6.4 17.7 0.00 0.00 0.00 10 1005.1
20260507154503 8 322 9.7 16.1 0.00 0.00 0.00 10 1005.0
20260507154249 7 315 9.7 12.9 0.00 0.00 0.00 10 1005.0
20260507153748 7 328 6.4 12.9 0.00 0.00 0.00 10 1005.1
20260507153635 6 324 6.4 12.9 0.00 0.00 0.00 10 1005.1
20260507153603 6 324 6.4 12.9 0.00 0.00 0.00 10 1005.1
20260507153248 6 304 1.6 12.9 0.00 0.00 0.00 10 1005.0
20260507152748 6 297 6.4 12.9 0.00 0.00 0.00 10 1004.9
20260507152703 6 297 6.4 12.9 0.00 0.00 0.00 10 1004.9
20260507152248 6 321 6.4 16.1 0.00 0.00 0.00 10 1004.9
20260507151803 7 339 4.8 16.1 0.00 0.00 0.00 10 1005.0
20260507151747 7 341 6.4 16.1 0.00 0.00 0.00 10 1004.9
20260507151635 7 338 3.2 16.1 0.00 0.00 0.00 10 1004.8
20260507151247 7 304 8.0 14.5 0.00 0.00 0.00 10 1004.9
20260507150903 7 280 4.8 12.9 0.00 0.00 0.00 10 1004.9
20260507150747 7 269 4.8 9.7 0.00 0.00 0.00 10 1004.9
20260507150247 7 260 4.8 9.7 0.00 0.00 0.00 10 1004.9
20260507150003 7 261 4.8 9.7 0.00 0.00 0.00 10 1004.7
20260507145747 7 280 3.2 12.9 0.00 0.00 0.00 10 1004.7
20260507145635 7 285 3.2 12.9 0.00 0.00 0.00 10 1004.8
20260507145403 7 302 1.6 12.9 0.00 0.00 0.00 10 1004.6
20260507145248 7 316 3.2 12.9 0.00 0.00 0.00 10 1004.7
20260507144747 6 329 3.2 12.9 0.00 0.00 0.00 10 1004.7
20260507144503 6 328 4.8 12.9 0.00 0.00 0.00 10 1004.8
20260507144247 6 337 3.2 14.5 0.00 0.00 0.00 10 1004.6
20260507143747 6 342 6.4 16.1 0.00 0.00 0.00 10 1004.6
20260507143635 7 339 6.4 16.1 0.00 0.00 0.00 10 1004.5
20260507143603 7 339 6.4 16.1 0.00 0.00 0.00 10 1004.5
20260507143247 7 339 9.7 17.7 0.00 0.00 0.00 10 1004.5
20260507142748 6 333 6.4 17.7 0.00 0.00 0.00 10 1004.7
20260507142703 6 334 6.4 17.7 0.00 0.00 0.00 10 1004.7
20260507142247 7 334 6.4 19.3 0.00 0.00 0.00 10 1004.7
20260507141803 7 332 6.4 19.3 0.00 0.00 0.00 10 1004.7
20260507141747 7 327 6.4 19.3 0.00 0.00 0.00 10 1004.5
20260507141636 7 328 12.9 19.3 0.00 0.00 0.00 10 1004.5
20260507141247 7 336 6.4 17.7 0.00 0.00 0.00 10 1004.7
20260507140903 7 346 6.4 19.3 0.00 0.00 0.00 10 1004.4
20260507140747 6 350 8.0 19.3 0.00 0.00 0.00 10 1004.6
20260507140247 6 355 6.4 19.3 0.00 0.00 0.00 10 1004.5
20260507140003 6 352 6.4 19.3 0.00 0.00 0.00 10 1004.4
20260507135747 7 348 12.9 19.3 0.00 0.00 0.00 10 1004.4
20260507135635 7 347 11.3 19.3 0.00 0.00 0.00 10 1004.4
20260507135403 7 342 8.0 19.3 0.00 0.00 0.00 10 1004.3
20260507135247 7 338 9.7 19.3 0.00 0.00 0.00 10 1004.4
20260507134747 7 355 11.3 19.3 0.00 0.00 0.00 10 1004.3
20260507134503 7 355 11.3 20.9 0.00 0.00 0.00 10 1004.3
20260507134248 6 3 6.4 20.9 0.00 0.00 0.00 10 1004.3
20260507133748 6 342 14.5 20.9 0.00 0.00 0.00 10 1004.2
20260507133634 6 342 14.5 20.9 0.00 0.00 0.00 10 1004.2
20260507133603 6 342 14.5 20.9 0.00 0.00 0.00 10 1004.2
20260507133248 7 330 8.0 20.9 0.00 0.00 0.00 10 1004.2
20260507132748 6 340 9.7 19.3 0.00 0.00 0.00 10 1004.2
20260507132703 6 341 9.7 19.3 0.00 0.00 0.00 10 1004.2
20260507132248 6 334 9.7 17.7 0.00 0.00 0.00 10 1004.0
20260507131803 6 325 6.4 17.7 0.00 0.00 0.00 10 1004.1
20260507131748 6 322 6.4 17.7 0.00 0.00 0.00 10 1004.1
20260507131448 6 316 11.3 17.7 0.00 0.00 0.00 10 1004.1
20260507130948 6 336 6.4 17.7 0.00 0.00 0.00 10 1004.1
20260507130903 6 336 6.4 17.7 0.00 0.00 0.00 10 1004.1
20260507130448 6 342 11.3 17.7 0.00 0.00 0.00 10 1004.1
20260507130003 6 342 6.4 17.7 0.00 0.00 0.00 10 1004.0
20260507125948 6 339 8.0 17.7 0.00 0.00 0.00 10 1004.1
20260507125634 6 334 6.4 19.3 0.00 0.00 0.00 10 1004.1
20260507125448 6 329 6.4 19.3 0.00 0.00 0.00 10 1004.0
20260507125403 6 329 6.4 19.3 0.00 0.00 0.00 10 1004.0
20260507124948 6 320 6.4 19.3 0.00 0.00 0.00 10 1003.9
20260507124503 6 323 8.0 16.1 0.00 0.00 0.00 10 1004.1
20260507124448 6 324 11.3 16.1 0.00 0.00 0.00 10 1004.0
20260507123948 6 325 9.7 16.1 0.00 0.00 0.00 10 1003.9
20260507123634 6 330 6.4 14.5 0.00 0.00 0.00 10 1003.9
20260507123603 6 330 6.4 14.5 0.00 0.00 0.00 10 1003.9
20260507123448 6 338 6.4 20.9 0.00 0.00 0.00 10 1003.9
20260507122948 6 341 9.7 20.9 0.00 0.00 0.00 10 1003.9
20260507122705 6 346 6.4 20.9 0.00 0.00 0.00 10 1003.9
20260507122448 7 349 8.0 20.9 0.00 0.00 0.00 10 1003.8
20260507121948 6 340 9.7 17.7 0.00 0.00 0.00 10 1003.9
20260507121803 6 333 12.9 17.7 0.00 0.00 0.00 10 1003.8
20260507121634 6 327 9.7 17.7 0.00 0.00 0.00 10 1003.9
20260507121448 6 323 6.4 17.7 0.00 0.00 0.00 10 1003.9
20260507120949 6 336 3.2 16.1 0.00 0.00 0.00 10 1003.8
20260507120903 6 336 3.2 16.1 0.00 0.00 0.00 10 1003.8
20260507120449 6 345 6.4 17.7 0.00 0.00 0.00 10 1003.8
20260507120004 6 5 6.4 24.1 0.00 0.00 0.00 10 1003.8
20260507115949 6 5 9.7 24.1 0.00 0.00 0.00 10 1003.8
20260507115635 6 360 9.7 24.1 0.00 0.00 0.00 10 1003.8
20260507115449 6 356 8.0 24.1 0.00 0.00 0.00 10 1003.8
20260507115403 6 356 8.0 24.1 0.00 0.00 0.00 10 1003.8
20260507114949 6 344 12.9 22.5 0.00 0.00 0.00 10 1003.7
20260507114503 6 359 12.9 17.7 0.00 0.00 0.00 10 1003.7
20260507114449 6 358 8.0 17.7 0.00 0.00 0.00 10 1003.7
20260507113949 6 360 12.9 17.7 0.00 0.00 0.00 10 1003.6
20260507113635 6 340 11.3 17.7 0.00 0.00 0.00 10 1003.6
20260507113603 6 340 11.3 17.7 0.00 0.00 0.00 10 1003.6
20260507113449 6 342 6.4 19.3 0.00 0.00 0.00 10 1003.6
20260507112949 6 332 9.7 19.3 0.00 0.00 0.00 10 1003.6
20260507112703 6 343 8.0 19.3 0.00 0.00 0.00 10 1003.5
20260507112449 6 348 8.0 17.7 0.00 0.00 0.00 10 1003.5
20260507111949 6 360 6.4 17.7 0.00 0.00 0.00 10 1003.4
20260507111803 6 7 11.3 17.7 0.00 0.00 0.00 10 1003.4
20260507111635 6 2 9.7 16.1 0.00 0.00 0.00 10 1003.4
20260507111449 6 349 8.0 17.7 0.00 0.00 0.00 10 1003.5
20260507110949 6 349 6.4 17.7 0.00 0.00 0.00 10 1003.5
20260507110904 6 349 6.4 17.7 0.00 0.00 0.00 10 1003.5
20260507110449 6 340 6.4 16.1 0.00 0.00 0.00 10 1003.4
20260507110003 6 342 8.0 17.7 0.00 0.00 0.00 10 1003.4
20260507105949 6 333 11.3 17.7 0.00 0.00 0.00 10 1003.3
20260507105635 6 335 11.3 19.3 0.00 0.00 0.00 10 1003.4
20260507105449 6 349 6.4 20.9 0.00 0.00 0.00 10 1003.4
20260507105403 6 349 6.4 20.9 0.00 0.00 0.00 10 1003.4
20260507104949 6 351 8.0 20.9 0.00 0.00 0.00 10 1003.3
20260507104504 6 353 12.9 19.3 0.00 0.00 0.00 10 1003.3
20260507104449 6 346 8.0 19.3 0.00 0.00 0.00 10 1003.3
20260507103948 6 338 6.4 17.7 0.00 0.00 0.00 10 1003.2
20260507103634 6 334 9.7 17.7 0.00 0.00 0.00 10 1003.2
20260507103603 6 335 9.7 17.7 0.00 0.00 0.00 10 1003.2
20260507103449 6 335 9.7 17.7 0.00 0.00 0.00 10 1003.3
20260507102949 5 333 6.4 14.5 0.00 0.00 0.00 10 1003.2
20260507102703 6 330 6.4 14.5 0.00 0.00 0.00 10 1003.1
20260507102449 6 344 6.4 17.7 0.00 0.00 0.00 10 1003.1
20260507101949 6 351 4.8 17.7 0.00 0.00 0.00 10 1003.0
20260507101803 6 353 6.4 17.7 0.00 0.00 0.00 10 1002.9
20260507101635 6 348 6.4 17.7 0.00 0.00 0.00 10 1003.0
20260507101449 6 337 4.8 17.7 0.00 0.00 0.00 10 1002.9
20260507100949 6 343 11.3 17.7 0.00 0.00 0.00 10 1002.9
20260507100903 6 343 11.3 17.7 0.00 0.00 0.00 10 1002.9
20260507100449 6 350 9.7 19.3 0.00 0.00 0.00 10 1002.6
20260507100005 6 351 6.4 19.3 0.00 0.00 0.00 10 1002.8
20260507095949 6 353 9.7 19.3 0.00 0.00 0.00 10 1002.8
20260507095635 6 352 9.7 16.1 0.00 0.00 0.00 10 1002.8
20260507095449 6 358 11.3 16.1 0.00 0.00 0.00 10 1002.8
20260507095403 6 358 11.3 16.1 0.00 0.00 0.00 10 1002.8
20260507094949 6 357 4.8 14.5 0.00 0.00 0.00 10 1002.5
20260507094503 6 349 8.0 16.1 0.00 0.00 0.00 10 1002.4
20260507094449 6 343 6.4 16.1 0.00 0.00 0.00 10 1002.5
20260507093948 5 2 6.4 19.3 0.00 0.00 0.00 10 1002.4
20260507093634 6 1 6.4 19.3 0.00 0.00 0.00 10 1002.5
20260507093603 6 3 6.4 19.3 0.00 0.00 0.00 10 1002.5
20260507093448 5 359 6.4 20.9 0.00 0.00 0.00 10 1002.6
20260507092949 6 350 4.8 20.9 0.00 0.00 0.00 10 1002.6
20260507092703 5 341 9.7 20.9 0.00 0.00 0.00 10 1002.5
20260507092448 5 348 12.9 20.9 0.00 0.00 0.00 10 1002.4
20260507091948 5 1 8.0 20.9 0.00 0.00 0.00 10 1002.4
20260507091803 5 5 9.7 20.9 0.00 0.00 0.00 10 1002.3
20260507091634 5 5 6.4 20.9 0.00 0.00 0.00 10 1002.2
20260507091448 5 354 6.4 20.9 0.00 0.00 0.00 10 1002.2
20260507090948 5 325 6.4 17.7 0.00 0.00 0.00 10 1002.0
20260507090903 5 325 6.4 17.7 0.00 0.00 0.00 10 1002.0
20260507090448 5 344 9.7 17.7 0.00 0.00 0.00 10 1002.1
20260507090003 5 338 12.9 17.7 0.00 0.00 0.00 10 1002.1
20260507085948 5 341 9.7 19.3 0.00 0.00 0.00 10 1001.9
20260507085634 5 331 6.4 19.3 0.00 0.00 0.00 10 1001.9
20260507085448 5 314 11.3 19.3 0.00 0.00 0.00 10 1001.8
20260507085403 5 314 11.3 19.3 0.00 0.00 0.00 10 1001.8
20260507084948 4 324 14.5 17.7 0.00 0.00 0.00 10 1001.7
20260507084503 4 314 8.0 17.7 0.00 0.00 0.00 10 1001.6
20260507084448 4 320 6.4 17.7 0.00 0.00 0.00 10 1001.6
20260507083948 4 322 6.4 17.7 0.00 0.00 0.00 10 1001.5
20260507083634 4 339 6.4 17.7 0.00 0.00 0.00 10 1001.4
20260507083603 4 340 6.4 17.7 0.00 0.00 0.00 10 1001.4
20260507083448 3 342 8.0 17.7 0.00 0.00 0.00 10 1001.5
20260507082948 3 348 9.7 20.9 0.00 0.00 0.00 10 1001.5
20260507082703 3 355 8.0 20.9 0.00 0.00 0.00 10 1001.5
20260507082348 3 3 8.0 20.9 0.00 0.00 0.00 10 1001.6
20260507081848 3 15 6.4 17.7 0.00 0.00 0.00 10 1001.6
20260507081803 3 15 6.4 17.7 0.00 0.00 0.00 10 1001.6
20260507081634 3 6 11.3 17.7 0.00 0.00 0.00 10 1001.5
20260507081348 3 360 6.4 17.7 0.00 0.00 0.00 10 1001.5
20260507080903 3 355 8.0 12.9 0.00 0.00 0.00 10 1001.7
20260507080847 3 351 8.0 12.9 0.00 0.00 0.00 10 1001.7
20260507080347 3 1 6.4 16.1 0.00 0.00 0.00 10 1001.7
20260507080003 3 353 6.4 17.7 0.00 0.00 0.00 10 1001.8
20260507075847 3 347 6.4 17.7 0.00 0.00 0.00 10 1001.8
20260507075635 3 341 11.3 17.7 0.00 0.00 0.00 10 1001.9
20260507075403 3 330 9.7 17.7 0.00 0.00 0.00 10 1002.0
20260507075347 3 326 11.3 17.7 0.00 0.00 0.00 10 1002.0
20260507074847 3 330 12.9 17.7 0.00 0.00 0.00 10 1002.1
20260507074503 3 344 8.0 17.7 0.00 0.00 0.00 10 1002.2
20260507074347 2 337 6.4 22.5 0.00 0.00 0.00 10 1002.2
20260507073847 2 324 8.0 24.1 0.00 0.00 0.00 10 1002.3
20260507073635 2 329 8.0 24.1 0.00 0.00 0.00 10 1002.4
20260507073603 2 329 8.0 24.1 0.00 0.00 0.00 10 1002.4
20260507073347 2 347 8.0 24.1 0.00 0.00 0.00 10 1002.3
20260507072847 2 347 12.9 24.1 0.00 0.00 0.00 10 1002.3
20260507072703 2 343 8.0 19.3 0.00 0.00 0.00 10 1002.4
20260507072347 2 331 6.4 19.3 0.00 0.00 0.00 10 1002.5
20260507071847 2 342 12.9 19.3 0.00 0.00 0.00 10 1002.6
20260507071803 2 342 12.9 19.3 0.00 0.00 0.00 10 1002.6
20260507071635 2 350 9.7 17.7 0.00 0.00 0.00 10 1002.7
20260507071347 2 358 6.4 17.7 0.00 0.00 0.00 10 1002.8
20260507070903 2 355 6.4 17.7 0.00 0.00 0.00 10 1002.9
20260507070847 2 359 6.4 17.7 0.00 0.00 0.00 10 1002.6
20260507070347 2 2 9.7 17.7 0.00 0.00 0.00 10 1002.7
20260507070006 2 338 9.7 17.7 0.00 0.00 0.00 10 1002.8
20260507065847 1 326 3.2 12.9 0.00 0.00 0.00 10 1002.8
20260507065635 1 319 6.4 12.9 0.00 0.00 0.00 10 1002.7
20260507065403 1 324 3.2 12.9 0.00 0.00 0.00 10 1002.7
20260507065347 1 322 6.4 12.9 0.00 0.00 0.00 10 1002.7
20260507064735 1 330 6.4 12.9 0.00 0.00 0.00 10 1002.8
20260507064503 1 333 4.8 12.9 0.00 0.00 0.00 10 1002.7
20260507064235 1 336 3.2 12.9 0.00 0.00 0.00 10 1002.7
20260507063735 1 334 3.2 11.3 0.00 0.00 0.00 10 1002.6
20260507063635 1 337 3.2 11.3 0.00 0.00 0.00 10 1002.6